Showing default

COSMOS 2589, 64467

Orbit data source: Space-Track

COSMOS 2589, 64467 is a payload satellite owned by Resehetnev ISS (CIS) in GEO that was launched on Thu, 19 Jun 2025 UTC via an ANGARA A5 launch vehicle from the Plesetsk Missile And Space Complex (PKMTR). Payload-class satellites include a variety of spacecraft equipped with specific instruments for various scientific and technological missions. These include communications satellites like Starlink; space stations such as the ISS; scientific satellites like the Hubble; Earth observation satellites from companies like Planet Labs, Umbra, and HawkEye 360; GPS; miniature CubeSats for education and research; and military/defense satellites.

Not visible in the next 10 days
Identifier
64467, 2025-131A
Orbit
GEO
Country
Flag of CISCIS
Related business
Manufacturer
RESH/TSKHM
Mission
Operational Defense Technology
Bus & Motor
14F166, Unknown motor
Mass
~3,200 kg wet, 2,700 kg dry
Launch date (UTC)
2025-06-19 (8 months ago)
Launch vehicle
ANGARA A5
Launch site
Plesetsk Missile And Space Complex (PKMTR)
Object type
Payload
Rocket body
Debris
Shape & HBR
Flared Cyl, 2.0 m
Radar Cross Section
7.854 m², Large (>1 m²)

Expand to show TLE details & history
Last TLE update: 5 hours ago

TLE from 5 hours ago
0 COSMOS 2589
1 64467U 25131A   26036.73166721 -.00000334  00000-0  00000+0 0  9999
2 64467   0.2075 304.1621 1724581 155.8208  37.1649  1.00223022  2247
Epoch: 2026-02-05T17:33Z
TLE epoch observation values (Epoch: 2026-02-05T17:33:36.046Z)
Latitude
-0.07531°
Longitude
112.08544°
Altitude
30,544.833 km
Speed
3.484 km/s
True Right ascension
10h 05m 27s
True Declination
0° 04' 31"
Sunlit
Object was in daylight at epoch
Visualization orbit readout
Latitude
Unknown
Longitude
Unknown
Altitude
Unknown
Speed
Unknown
Apparent Right ascension
Unknown
Apparent Declination
Unknown
Sunlit
N/A
Visualization observer readout
Local Sidereal Time
00:59:22
Azimuth
Unknown
Elevation
Unknown
Doppler factor
Unknown
Orbital elements
Apogee altitude
43,075.59 km
Perigee altitude
28,527.188 km
Semi-major axis
42,179.526 km
Eccentricity
0.17246
Inclination
0.2075°
RAAN
304.1621°
Arg. of periapsis
155.8208°
True anomaly
51.40378°
Mean anomaly
37.1649°
Eccentric anomaly
44.033°
Mean motion
0.25055 °/min
Orbital period
1,436.85 mins
BSTAR
0
Loading maneuver chart data...
Computing Atmospheric mass density...
Loading historical data...
Loading historical data...
Loading historical data...
Loading historical data...
Loading historical data...
Loading historical data...
Loading historical data...
Other satellites on launch #131 in the year 2025 (2025-06-19 UTC)

Documentation

Showing up to 5 results
|